Regional Weather Roundup
Issued by NWS

Home | Current Version | Previous Version | Graphics & Text | Print | Product List | Glossary On
Versions: 1 2 3 4 5 6 7 8 9 10 11 12 13 14 15 16 17 18 19 20 21 22 23 24 25 26 27 28 29 30 31 32 33 34 35 36 37 38 39 40 41 42 43 44 45 46 47 48 49 50
000
ASUS43 KIND 260609
RWRIN

WEATHER ROUNDUP FOR INDIANA
NATIONAL WEATHER SERVICE INDIANAPOLIS IN
100 AM EST SUN FEB 26 2017

NOTE: "FAIR" INDICATES FEW OR NO CLOUDS BELOW 12,000 FEET WITH NO
SIGNIFICANT WEATHER AND/OR OBSTRUCTIONS TO VISIBILITY.

* - STATION DOES NOT REPORT WEATHER SUCH AS PRECIPITATION OR FOG.

+ - STATION NOT QUALITY CONTROLLED BY THE NATIONAL WEATHER SERVICE.
    USE DATA WITH CAUTION...ESPECIALLY DEWPOINT AND RELATIVE
    HUMIDITY OBSERVATIONS.

INZ001>003-010>013-019-020-260700-
NORTHWEST INDIANA

CITY           SKY/WX    TMP DP  RH WIND       PRES   REMARKS
GARY /AIRPORT/ CLOUDY    27  14  58 SW3       30.07R
KNOX *+        CLOUDY    27  -2  28 W9        30.05S WCI  17
LA PORTE +     CLOUDY    26  15  64 W3        30.05R
6HR MIN TEMP:  25; 6HR MAX TEMP:  26;

MICHIGAN CITY+ CLOUDY    27  16  63 NW6       30.05S WCI  20
MONTICELLO +   PTCLDY    24  18  75 W6        30.07R WCI  17
6HR MIN TEMP:  24; 6HR MAX TEMP:  28;

RENSSELAER +     N/A     25  21  86 CALM      30.08R
VALPARAISO     CLOUDY    24  16  71 W6        30.05S WCI  17
6HR MIN TEMP:  23; 6HR MAX TEMP:  28;


$$

LMZ046-743>745-260700-
SOUTHERN LAKE MICHIGAN

STATION/POSITION TIME  TEMP    WIND        PRES    WAVE
                       AIR SEA DIR/SP/G            HT
                 (UTC) (F)     (DEG/KT/KT) (MB)    (FT)
BURNS HARBOR     0540   28     290/ 13/ 16 1017.9R
MICHIGAN CITY    0540   27     260/ 16/ 18   N/A

$$

INZ004-005-014>016-021>024-260700-
NORTH CENTRAL INDIANA

CITY           SKY/WX    TMP DP  RH WIND       PRES   REMARKS
GOSHEN         CLOUDY    26  15  63 W15       30.03R WCI  14
6HR MIN TEMP:  25; 6HR MAX TEMP:  26; 6HR PCP: TRACE;

LOGANSPORT +   CLEAR     25  19  80 W7        30.08R WCI  17
PERU/GRISSOM   PTCLDY    24  18  77 W7        30.04R WCI  16
6HR MIN TEMP:  24; 6HR MAX TEMP:  29;

ROCHESTER +    CLOUDY    28  18  64 W10G16    30.06R WCI  19
SOUTH BEND     CLOUDY    26  16  65 W7        30.03R WCI  18
6HR MIN TEMP:  24; 6HR MAX TEMP:  26; 6HR PCP: TRACE;

WARSAW +       CLOUDY    27  16  63 W12       30.04R WCI  16

$$

INZ006>009-017-018-025>027-260700-
NORTHEAST INDIANA

CITY           SKY/WX    TMP DP  RH WIND       PRES   REMARKS
ANGOLA *+      CLOUDY    25  21  86 W5        29.99S WCI  19
AUBURN +       CLOUDY    28  18  64 W10       30.03R WCI  19
FORT WAYNE     FLURRIES  27  20  75 W8        30.03R WCI  19
6HR MIN TEMP:  27; 6HR MAX TEMP:  27; 6HR PCP: TRACE;

HUNTINGTON +   CLOUDY    26  15  61 W10G17    30.04R WCI  16
6HR MIN TEMP:  26; 6HR MAX TEMP:  28;

KENDALLVILLE + FLURRIES  25  18  74 W10       30.01R WCI  15

$$

INZ028-029-035-036-043>045-051>053-260700-
WEST CENTRAL INDIANA

CITY           SKY/WX    TMP DP  RH WIND       PRES   REMARKS
LAFAYETTE      CLEAR     22  18  85 W5        30.09R WCI  16
6HR MIN TEMP:  22; 6HR MAX TEMP:  29;

TERRE HAUTE    CLEAR     26  14  60 W5        30.13R WCI  20
6HR MIN TEMP:  25; 6HR MAX TEMP:  33;


$$

INZ030>032-037>040-046>048-054>057-064-065-260700-
CENTRAL INDIANA

CITY           SKY/WX    TMP DP  RH WIND       PRES   REMARKS
CP ATTERBURY + CLEAR     27  16  63 W5        30.11R WCI  21
FISHERS *+     CLEAR     23  19  86 W5        30.08R WCI  17
FRANKFORT +    CLEAR     24  20  84 W7        30.09R WCI  16
6HR MIN TEMP:  24; 6HR MAX TEMP:  31;

GREENWOOD *+   CLEAR     28  17  65 W6        30.08S WCI  21
6HR MIN TEMP:  28; 6HR MAX TEMP:  32;

INDIANAPOLIS   PTCLDY    25  16  68 W9        30.08R WCI  15
6HR MIN TEMP:  24; 6HR MAX TEMP:  30;

-EAGLE CREEK   CLEAR     27  16  63 W8        30.07R WCI  19
6HR MIN TEMP:  27; 6HR MAX TEMP:  31;

KOKOMO +       PTCLDY    23  18  81 W8        30.07R WCI  14
6HR MIN TEMP:  23; 6HR MAX TEMP:  29;

MARION +       CLOUDY    26  17  70 W10       30.06R WCI  16
MT COMFORT *+  CLEAR     25  18  74 W8        30.07S WCI  16
SHELBYVILLE    CLEAR     27  15  61 W7        30.07S WCI  19
6HR MIN TEMP:  26; 6HR MAX TEMP:  33;

ZIONSVILLE +   CLEAR     24  18  78 W7        30.08R WCI  16
6HR MIN TEMP:  24; 6HR MAX TEMP:  28;


$$

INZ033-034-041-042-049-050-058-059-260700-
EAST CENTRAL INDIANA

CITY           SKY/WX    TMP DP  RH WIND       PRES   REMARKS
MUNCIE         CLOUDY    28  18  66 W10       30.04R WCI  19
6HR MIN TEMP:  27; 6HR MAX TEMP:  30;


$$

INZ060-061-067>069-081>083-085>088-260700-
SOUTHWEST INDIANA

CITY           SKY/WX    TMP DP  RH WIND       PRES   REMARKS
EVANSVILLE     CLEAR     31  15  52 W3        30.16R
6HR MIN TEMP:  30; 6HR MAX TEMP:  36;

HUNTINGBURG *+ CLEAR     26  18  71 W3        30.15R
6HR MIN TEMP:  25; 6HR MAX TEMP:  32;

WASHINGTON +   CLEAR     28  16  60 W6        30.14R WCI  22
6HR MIN TEMP:  28; 6HR MAX TEMP:  34;


$$

INZ062-063-066-070>080-084-089>092-260700-
SOUTH CENTRAL AND SOUTHEAST INDIANA

CITY           SKY/WX    TMP DP  RH WIND       PRES   REMARKS
BEDFORD +      CLEAR     27  16  63 CALM      30.11R
BLOOMINGTON    CLEAR     27  15  61 W6        30.10R WCI  20
6HR MIN TEMP:  26; 6HR MAX TEMP:  32;

MADISON *+     CLEAR     28  19  69 SW5       30.11R WCI  23
NORTH VERNON + CLEAR     28  19  69 W3        30.09R
SEYMOUR +      CLEAR     27  18  69 W10       30.11R WCI  17

$$





USA.gov is the U.S. government's official web portal to all federal, state and local government web resources and services.